Regional Weather Roundup
Issued by NWS

Home | Current Version | Previous Version | Text Only | Print | Product List | Glossary Off
Versions: 1 2 3 4 5 6 7 8 9 10 11 12 13 14 15 16 17 18 19 20 21 22 23 24 25 26 27 28 29 30 31 32 33 34 35 36 37 38 39 40 41 42 43 44 45 46 47 48 49 50

000
ASUS45 KTFX 242010
RWRMT
MONTANA REGIONAL WEATHER ROUNDUP
NATIONAL WEATHER SERVICE GREAT FALLS MT
200 PM MDT SUN MAY 24 2015

NOTE: "FAIR" INDICATES FEW OR NO CLOUDS BELOW 12000 FEET WITH NO
SIGNIFICANT WEATHER AND/OR OBSTRUCTIONS TO VISIBILITY.

MTZ001>007-043-242100-
WEST OF THE DIVIDE

CITY           SKY/WX    TMP DP  RH WIND       PRES   REMARKS
KALISPELL      MOCLDY    71  34  25 CALM      29.97F
MISSOULA       PTSUNNY   69  35  28 SE13G23   30.00F
BUTTE          CLOUDY    56  35  45 N6        30.05F
MULLAN PASS    CLOUDY    57  33  40 CALM      30.06F
DEER LODGE       N/A     55  37  50 N8        30.09F
EUREKA           N/A     73  36  25 W5        29.94F
HAMILTON         N/A     64  37  36 NW8       29.99F
LIBBY            N/A     73  36  25 E5        29.94F
PLAINS           N/A     74  41  30 SE1       29.96F
RONAN            N/A     69  43  39 W2        30.03F
THOMPSON FALLS   N/A     76  40  27 E3        29.97F
$$

MTZ008-052>055-242100-
SOUTHWEST MONTANA

CITY           SKY/WX    TMP DP  RH WIND       PRES   REMARKS
BOZEMAN        PTSUNNY   59  44  57 CALM      30.02F
DILLON         PTSUNNY   59  36  42 N12G24    30.00F
W YELLOWSTONE  PTSUNNY   54  34  47 N12G18    29.99S
THREE FORKS      N/A     62  62 100 NE1       30.01F
TWIN BRIDGES     N/A     62  35  36 N20       29.99F
$$

MTZ009-010-012-014-046-048-049-054-242100-
EAST SLOPES AND CENTRAL MONTANA

CITY           SKY/WX    TMP DP  RH WIND       PRES   REMARKS
CUT BANK       CLOUDY    62  39  42 E12       30.06F
GREAT FALLS    CLOUDY    60  42  51 NE7       30.05F
MALMSTROM AFB  PTSUNNY   59  44  57 SE6G13    30.06F
HELENA         CLOUDY    60  41  49 N12       30.04F
CONRAD           N/A     62  48  60 E6        30.09F
$$

MTZ011-013-016-021-045-047-050-051-242100-
NORTH CENTRAL MONTANA

CITY           SKY/WX    TMP DP  RH WIND       PRES   REMARKS
HAVRE          MOSUNNY   73  39  29 SE10G20   30.00F
LEWISTOWN      CLOUDY    59  46  62 E10       30.05F
CHINOOK          N/A     72  37  28 E13G21    30.01S
FORT BENTON      N/A     64  43  45 NE8       30.04F
$$

MTZ017>020-022>027-061-062-242100-
NORTHEAST MONTANA

CITY           SKY/WX    TMP DP  RH WIND       PRES   REMARKS
GLASGOW        PTSUNNY   74  37  26 E10G21    29.96F
JORDAN           N/A     69  41  36 E13       29.98F
SIDNEY         MOSUNNY   70  48  46 E6        29.98F
WOLF POINT     MOSUNNY   77  39  25 E17G23    29.96F
MALTA            N/A     73  44  35 SE5       29.96F
PLENTYWOOD       N/A     75  36  23 E17       29.98S
POPLAR           N/A     75  37  25 E14G30    29.96F
SCOBEY           N/A     76  33  20 NE17      29.98F
$$

MTZ028>42-056>058-242100-
SOUTHCENTRAL AND SOUTHEAST MONTANA

CITY           SKY/WX    TMP DP  RH WIND       PRES   REMARKS
BAKER          LGT RAIN  59  51  75 E13       30.00F
BILLINGS       CLOUDY    56  49  77 NE8       30.01F
LIVINGSTON     CLOUDY    59  45  59 E10       30.02F
MILES CITY     CLOUDY    65  47  52 VRB5      29.97F
BIG TIMBER       N/A     52  48  87 E3        30.04F
EKALAKA          N/A     54  50  86 NE9       29.97S
FORSYTH          N/A     63  46  55 NE8G17    29.97F
LAUREL           N/A     55  46  71 NE5       30.00F
ROUNDUP          N/A     57  48  72 N6        29.94F
$$

REGIONAL REPORTS...DAKOTAS

CITY           SKY/WX    TMP DP  RH WIND       PRES   REMARKS
WILLISTON      SUNNY     76  39  26 SE18G28   29.97F
MINOT          MOSUNNY   73  42  32 NE13      29.97F
DICKINSON      CLOUDY    64  49  57 E10G20    29.96F
BEACH          CLOUDY    63  50  63 SE12      30.00S
CROSBY         FAIR      75  36  23 E15       29.98F
WATFORD CITY   MOCLDY    68  48  49 E9        29.96F
BISMARCK       CLOUDY    67  50  54 E13       29.97F
GRAND FORKS    CLOUDY    74  48  39 SE9       29.96F
FARGO          CLOUDY    69  51  52 E16       29.94F
BUFFALO SD       N/A     56  53  90 NE16      29.90F
RAPID CITY     RAIN      55  54  96 E12       29.90F FOG
$$

REGIONAL REPORTS...WYOMING/IDAHO/WASHINGTON

CITY           SKY/WX    TMP DP  RH WIND       PRES   REMARKS
GILLETTE       LGT RAIN  52  49  89 NE12      29.91S
SHERIDAN       RAIN      50  48  93 N14       29.98S FOG
BUFFALO WY     RAIN      49  47  93 N14G23    29.95F FOG
CODY           CLOUDY    48  45  87 N14G20    30.00S
YELLOWSTONE LA   N/A     49  31  49 NE5       30.03S
IDAHO FALLS    PTSUNNY   63  46  54 NW7       29.92F
SALMON         PTSUNNY   64  39  39 S5        29.94F
BOISE          SUNNY     72  46  39 W5        29.89F
SPOKANE        PTSUNNY   75  46  35 S8G17     29.94F
$$

REGIONAL REPORTS...ALBERTA

CITY           SKY/WX    TMP DP  RH WIND       PRES   REMARKS
EDMONTON       SUNNY     79  32  18 E3        29.94F
CALGARY        PTSUNNY   72  28  20 SE14G29   30.02F
LETHBRIDGE     MOSUNNY   72  34  25 S21       30.02F
MEDICINE HAT   PTSUNNY   73  36  25 SE9       30.01F
$$

REGIONAL REPORTS...SASKATCHEWAN

CITY           SKY/WX    TMP DP  RH WIND       PRES   REMARKS
SWIFT CURRENT  PTSUNNY   75  28  17 SE12G23   30.01F
REGINA         PTSUNNY   81  36  19 VRB5      29.97F
SASKATOON      MOSUNNY   82  28  14 W9        29.98F
$$


USA.gov is the U.S. government's official web portal to all federal, state and local government web resources and services.